This is the latest recevied weather packets stored in our database for station/object GCEMA. If no packets are shown the sender has not sent any weather packets the latest 10 day(s).
| Time | Temp. | Humidity | Pressure | Rain* | Wind** | Luminosity | Snow |
|---|---|---|---|---|---|---|---|
| 1777929323 | 25° C | - | 1002.7 hPa | 0 mm | 0 m/s | - | - |
| 1777928964 | 25.56° C | - | 1003 hPa | 0 mm | 0 m/s | - | - |
| 1777928785 | 24.44° C | - | 1003.1 hPa | 0 mm | 0 m/s | - | - |
| 1777928605 | 24.44° C | - | 1003.1 hPa | 0 mm | 0 m/s | - | - |
| 1777928425 | 25° C | - | 1003 hPa | 0 mm | 0 m/s | - | - |
| 1777928244 | 23.89° C | - | 1002.9 hPa | 0 mm | 0 m/s | - | - |
| 1777928064 | 24.44° C | - | 1002.8 hPa | 0 mm | 0 m/s | - | - |
| 1777927885 | 25° C | - | 1002.7 hPa | 0 mm | 0 m/s | - | - |
| 1777927705 | 24.44° C | - | 1002.8 hPa | 0 mm | 0 m/s | - | - |
| 1777927523 | 24.44° C | - | 1003 hPa | 0 mm | 0 m/s | - | - |
| 1777927343 | 24.44° C | - | 1003.2 hPa | 0 mm | 0 m/s | - | - |
| 1777927165 | 24.44° C | - | 1003.3 hPa | 0 mm | 0 m/s | - | - |
| 1777926984 | 25° C | - | 1003.4 hPa | 0 mm | 0 m/s | - | - |
| 1777926805 | 25° C | - | 1003.5 hPa | 0 mm | 0 m/s | - | - |
| 1777926622 | 24.44° C | - | 1003.8 hPa | 0 mm | 0 m/s | - | - |
| 1777926443 | 24.44° C | - | 1003.9 hPa | 0 mm | 0 m/s | - | - |
| 1777926263 | 23.89° C | - | 1003.9 hPa | 0 mm | 0 m/s | - | - |
| 1777926084 | 24.44° C | - | 1004 hPa | 0 mm | 0 m/s | - | - |
| 1777925905 | 24.44° C | - | 1004 hPa | 0 mm | 0 m/s | - | - |
| 1777925722 | 24.44° C | - | 1003.9 hPa | 0 mm | 0 m/s | - | - |
| 1777925542 | 25° C | - | 1003.8 hPa | 0 mm | 0 m/s | - | - |
| 1777925363 | 25° C | - | 1003.8 hPa | 0 mm | 0 m/s | - | - |
| 1777925183 | 25.56° C | - | 1003.9 hPa | 0 mm | 0 m/s | - | - |
| 1777924821 | 25° C | - | 1003.8 hPa | 0 mm | 0 m/s | - | - |
| 1777924641 | 25° C | - | 1003.7 hPa | 0 mm | 0 m/s | - | - |
* Rain latest hour (hover to see other rain measurements)
** Current wind speed in m/s (hover to see current wind gust speed)